Location: Aranbee
(34.0885°N, 118.2342°W)
Time: 09:06:27
(UTC+00:00)

Courier 1B Rocket - Pass Details

Date: 26 November 2020
Orbit: 920 x 1202 km, 28.2° (Epoch: 27 January)

Event Time Altitude Azimuth Distance (km) Brightness Sun altitude
Rises 19:33:48 0° 269° (W) 3,913 8.2 34.8°
Reaches altitude 10° 19:37:09 10° 257° (WSW) 2,904 7.7 34.8°
Maximum altitude 19:42:42 25° 205° (SSW) 1,940 8.1 34.8°
Drops below altitude 10° 19:47:57 10° 152° (SSE) 2,735 8.4 34.7°
Sets 19:51:01 0° 139° (SE) 3,640 8.6 34.7°
